CW0018 Weather Reports


time (UTC)temp
F
wind
direction
speed
knots
gust
knots
rain 1hr
in
rain 24hr
in
rain mn
in
humidity
%
barometer
mb
20190218034533 48 38 3.5 0.0 0.00 0.00 0.01 66 1014.6
20190218033130 48 36 2.6 0.0 0.00 0.00 0.01 67 1014.4
20190218031542 49 38 3.5 0.0 0.00 0.00 0.01 67 1014.1
20190218030020 49 31 2.6 0.0 0.00 0.00 0.01 68 1014.0
20190218024512 49 38 3.5 0.0 0.00 0.00 0.01 68 1013.8
20190218023021 49 25 2.6 0.0 0.00 0.00 0.01 67 1013.9
20190218021655 50 19 2.6 0.0 0.00 0.00 0.01 68 1013.8
20190218020215 50 23 1.7 0.0 0.00 0.00 0.01 67 1013.5
20190218014643 50 42 1.7 0.0 0.00 0.00 0.01 67 1013.0
20190218013125 51 51 1.7 0.0 0.00 0.00 0.01 66 1012.9
20190218011705 51 55 0.9 0.0 0.00 0.00 0.01 65 1012.7
20190218010117 52 47 2.6 0.0 0.00 0.00 0.01 64 1012.6
20190218004556 53 38 2.6 0.0 0.00 0.00 0.01 63 1012.3
20190218003117 53 18 1.7 0.0 0.00 0.00 0.01 63 1012.2
20190218001626 54 49 2.6 0.0 0.00 0.00 0.01 61 1011.8
20190218000038 55 57 4.3 0.0 0.00 0.00 0.01 60 1011.5
20190217214525 57 57 5.2 0.0 0.00 0.00 0.01 59 1010.9
20190217213008 57 346 6.1 0.0 0.00 0.00 0.01 59 1010.6
20190217211502 57 65 5.2 0.0 0.00 0.00 0.01 59 1010.7
20190217210146 57 11 6.1 0.0 0.00 0.00 0.01 61 1010.6
20190217204657 57 9 6.1 0.0 0.00 0.00 0.01 60 1010.5
20190217203202 57 355 6.1 0.0 0.00 0.00 0.01 63 1010.5
20190217201621 57 5 5.2 0.0 0.00 0.00 0.01 63 1010.6
20190217200124 57 19 4.3 0.0 0.00 0.00 0.01 66 1010.8
20190217194549 56 26 6.1 0.0 0.00 0.00 0.01 67 1010.8
20190217193103 56 5 6.1 0.0 0.00 0.00 0.01 68 1011.3
20190217191624 56 323 6.1 0.0 0.00 0.00 0.01 68 1011.4
20190217190104 56 40 6.1 0.0 0.00 0.00 0.01 68 1011.8
20190217184526 56 360 7.0 0.0 0.00 0.00 0.01 69 1011.7
20190217183054 56 30 6.1 0.0 0.00 0.00 0.01 69 1011.4
20190217181519 56 317 7.0 0.0 0.00 0.00 0.01 70 1011.5
20190217180014 56 28 6.1 0.0 0.00 0.00 0.01 70 1011.5
20190217154634 53 57 5.2 0.0 0.00 0.00 0.01 68 1010.2
20190217153119 53 5 5.2 0.0 0.00 0.00 0.01 61 1009.8
20190217151748 52 36 4.3 0.0 0.00 0.00 0.01 61 1009.6
20190217150112 53 331 5.2 0.0 0.00 0.00 0.01 60 1009.2
20190217144617 53 28 4.3 0.0 0.00 0.00 0.01 54 1009.1
20190217143052 52 11 5.2 0.0 0.00 0.00 0.01 38 1008.8
20190217141609 52 360 4.3 0.0 0.00 0.00 0.01 5 1008.7
20190217140115 51 26 2.6 0.0 0.00 0.00 0.01 100 1008.1
20190217134526 52 360 2.6 0.0 0.00 0.00 0.00 100 1007.9
20190217133028 51 324 0.9 0.0 0.00 0.00 0.00 100 1007.6
20190217131537 50 323 0.0 0.0 0.00 0.00 0.00 100 1007.2
20190217130010 50 323 0.0 0.0 0.00 0.00 0.00 100 1006.8
20190217124506 50 323 0.0 0.0 0.00 0.00 0.00 100 1006.6
20190217123219 50 323 0.0 0.0 0.00 0.00 0.00 100 1006.3
20190217121630 50 323 0.0 0.0 0.00 0.00 0.00 100 1006.2
20190217120149 50 323 0.0 0.0 0.00 0.00 0.00 100 1006.0
20190217114706 49 323 0.0 0.0 0.00 0.00 0.00 100 1005.4
20190217113146 50 323 0.0 0.0 0.00 0.00 0.00 100 1005.5
20190217111606 50 323 0.0 0.0 0.00 0.00 0.00 100 1005.4
20190217110136 51 323 0.0 0.0 0.00 0.00 0.00 100 1005.0
20190217104601 52 323 0.0 0.0 0.00 0.00 0.00 100 1004.7
20190217103052 52 323 0.0 0.0 0.00 0.00 0.00 100 1004.6
20190217101546 52 323 0.0 0.0 0.00 0.00 0.00 100 1004.8
20190217100044 51 323 0.0 0.0 0.00 0.00 0.00 100 1005.1
20190217094513 51 323 1.7 0.0 0.00 0.00 0.00 100 1005.0
20190217093017 51 343 4.3 0.0 0.00 0.00 0.00 100 1004.8
20190217091512 50 313 4.3 0.0 0.00 0.00 0.00 100 1004.7
20190217090144 50 312 3.5 0.0 0.00 0.00 0.00 100 1004.6
20190217084628 50 300 0.0 0.0 0.00 0.00 0.00 100 1003.9
20190217083208 51 323 0.0 0.0 0.00 0.00 0.00 100 1003.8
20190217081640 51 116 0.0 0.0 0.00 0.00 0.00 100 1003.2
20190217080234 51 116 0.0 0.0 0.00 0.00 0.00 3 1003.2
20190217074613 51 116 0.0 0.0 0.00 0.00 0.00 5 1003.2
20190217073057 51 116 0.0 0.0 0.00 0.00 0.00 8 1003.4
20190217071556 51 116 0.0 0.0 0.00 0.00 0.00 10 1003.3
20190217070050 51 116 0.0 0.0 0.00 0.00 0.00 10 1003.3
20190217064535 50 116 0.0 0.0 0.00 0.00 0.00 13 1003.0
20190217063051 50 116 0.0 0.0 0.00 0.00 0.00 13 1003.3
20190217061615 50 116 0.0 0.0 0.00 0.00 0.00 15 1003.1
20190217060023 50 116 0.0 0.0 0.00 0.00 0.00 17 1003.3
20190217054520 50 116 0.0 0.0 0.00 0.00 0.00 19 1003.5
20190217053011 50 116 0.0 0.0 0.00 0.00 0.00 22 1003.7
20190217051508 50 116 0.0 0.0 0.00 0.00 0.00 25 1003.8
20190217050142 50 116 0.0 0.0 0.00 0.00 0.00 26 1004.2
20190217044711 49 116 0.0 0.0 0.00 0.00 0.00 28 1004.5
20190217043204 49 116 0.0 0.0 0.00 0.00 0.00 30 1004.7
20190217041638 49 116 0.0 0.0 0.00 0.00 0.00 31 1004.7
20190217040126 49 116 0.0 0.0 0.00 0.00 0.00 34 1004.8